Time,TemperatureF,DewpointF,PressureIn,WindDirection,WindDirectionDegrees,WindSpeedMPH,WindSpeedGustMPH,Humidity,HourlyPrecipIn,Conditions,Clouds,dailyrainin,SoftwareType,DateUTC
2013-05-16 00:02:00,52.0,41.0,29.78,NW,305,1.0,3.0,66,0.00,,,0.00,,2013-05-16 04:02:00,
2013-05-16 00:12:00,52.0,41.0,29.78,NW,305,1.0,3.0,66,0.00,,,0.00,,2013-05-16 04:12:00,
2013-05-16 00:23:00,51.0,41.0,29.78,NW,305,3.0,3.0,69,0.00,,,0.00,,2013-05-16 04:23:00,
2013-05-16 00:33:00,51.0,41.0,29.78,NW,305,3.0,3.0,69,0.00,,,0.00,,2013-05-16 04:33:00,
2013-05-16 00:42:00,51.0,41.0,29.78,NW,305,3.0,3.0,69,0.00,,,0.00,,2013-05-16 04:42:00,
2013-05-16 00:53:00,52.0,42.0,29.77,SSE,166,3.0,5.0,69,0.00,,,0.00,,2013-05-16 04:53:00,
2013-05-16 01:02:00,51.0,42.0,29.77,SSE,166,2.0,5.0,71,0.00,,,0.00,,2013-05-16 05:02:00,
2013-05-16 01:12:00,51.0,42.0,29.77,SSE,166,2.0,5.0,71,0.00,,,0.00,,2013-05-16 05:12:00,
2013-05-16 01:22:00,51.0,42.0,29.77,South,173,1.0,6.0,70,0.00,,,0.00,,2013-05-16 05:22:00,
2013-05-16 01:32:00,51.0,42.0,29.77,South,173,3.0,4.0,70,0.00,,,0.00,,2013-05-16 05:32:00,
2013-05-16 01:42:00,51.0,42.0,29.77,South,173,3.0,4.0,70,0.00,,,0.00,,2013-05-16 05:42:00,
2013-05-16 01:52:00,51.0,42.0,29.78,South,174,0.0,5.0,70,0.00,,,0.00,,2013-05-16 05:52:00,
2013-05-16 02:01:00,51.0,42.0,29.78,South,174,1.0,3.0,70,0.00,,,0.00,,2013-05-16 06:01:00,
2013-05-16 02:12:00,51.0,42.0,29.78,South,174,1.0,3.0,70,0.00,,,0.00,,2013-05-16 06:12:00,
2013-05-16 02:22:00,50.0,41.0,29.78,South,174,2.0,5.0,72,0.00,,,0.00,,2013-05-16 06:22:00,
2013-05-16 02:33:00,50.0,41.0,29.78,South,173,1.0,4.0,72,0.00,,,0.00,,2013-05-16 06:33:00,
2013-05-16 02:43:00,50.0,41.0,29.78,South,173,1.0,4.0,72,0.00,,,0.00,,2013-05-16 06:43:00,
2013-05-16 02:52:00,50.0,42.0,29.77,SSE,167,0.0,2.0,73,0.00,,,0.00,,2013-05-16 06:52:00,
2013-05-16 03:02:00,49.0,41.0,29.78,SSE,168,0.0,0.0,75,0.00,,,0.00,,2013-05-16 07:02:00,
2013-05-16 03:12:00,49.0,41.0,29.78,SSE,168,0.0,0.0,75,0.00,,,0.00,,2013-05-16 07:12:00,
2013-05-16 03:24:00,48.0,41.0,29.78,SSE,168,0.0,0.0,78,0.00,,,0.00,,2013-05-16 07:24:00,
2013-05-16 03:34:00,47.0,41.0,29.79,NNE,21,3.0,8.0,80,0.00,,,0.00,,2013-05-16 07:34:00,
2013-05-16 03:44:00,47.0,41.0,29.79,NNE,21,3.0,8.0,80,0.00,,,0.00,,2013-05-16 07:44:00,
2013-05-16 03:54:00,46.0,41.0,29.80,NNE,20,3.0,5.0,83,0.00,,,0.00,,2013-05-16 07:54:00,
2013-05-16 04:03:00,47.0,41.0,29.80,NNE,20,1.0,3.0,81,0.00,,,0.00,,2013-05-16 08:03:00,
2013-05-16 04:13:00,47.0,41.0,29.80,NNE,20,1.0,3.0,81,0.00,,,0.00,,2013-05-16 08:13:00,
2013-05-16 04:24:00,47.0,41.0,29.80,NNE,20,0.0,2.0,80,0.00,,,0.00,,2013-05-16 08:24:00,
2013-05-16 04:34:00,46.0,41.0,29.80,NNE,20,0.0,0.0,81,0.00,,,0.00,,2013-05-16 08:34:00,
2013-05-16 04:45:00,46.0,41.0,29.80,NNE,20,0.0,0.0,81,0.00,,,0.00,,2013-05-16 08:45:00,
2013-05-16 04:55:00,46.0,41.0,29.81,NNE,20,0.0,1.0,83,0.00,,,0.00,,2013-05-16 08:55:00,
2013-05-16 05:04:00,44.0,39.0,29.82,NNE,20,0.0,2.0,84,0.00,,,0.00,,2013-05-16 09:04:00,
2013-05-16 05:14:00,44.0,40.0,29.82,NNE,20,0.0,2.0,85,0.00,,,0.00,,2013-05-16 09:14:00,
2013-05-16 05:24:00,44.0,40.0,29.82,NNE,20,0.0,2.0,85,0.00,,,0.00,,2013-05-16 09:24:00,
2013-05-16 05:35:00,44.0,40.0,29.83,NNE,20,0.0,0.0,86,0.00,,,0.00,,2013-05-16 09:35:00,
2013-05-16 05:45:00,44.0,40.0,29.83,NNE,20,0.0,0.0,86,0.00,,,0.00,,2013-05-16 09:45:00,
2013-05-16 05:55:00,44.0,40.0,29.83,NNE,20,0.0,0.0,86,0.00,,,0.00,,2013-05-16 09:55:00,
2013-05-16 06:05:00,44.0,40.0,29.84,NNE,20,0.0,2.0,87,0.00,,,0.00,,2013-05-16 10:05:00,
2013-05-16 06:15:00,44.0,41.0,29.85,NNE,20,0.0,2.0,88,0.00,,,0.00,,2013-05-16 10:15:00,
2013-05-16 06:24:00,44.0,41.0,29.85,NNE,20,0.0,2.0,88,0.00,,,0.00,,2013-05-16 10:24:00,
2013-05-16 06:36:00,43.0,39.0,29.86,NNE,20,2.0,2.0,87,0.00,,,0.00,,2013-05-16 10:36:00,
2013-05-16 06:45:00,43.0,39.0,29.86,NNE,20,2.0,2.0,87,0.00,,,0.00,,2013-05-16 10:45:00,
2013-05-16 06:56:00,43.0,39.0,29.86,NNE,20,0.0,2.0,87,0.00,,,0.00,,2013-05-16 10:56:00,
2013-05-16 07:05:00,43.0,40.0,29.88,NNE,20,1.0,2.0,89,0.00,,,0.00,,2013-05-16 11:05:00,
2013-05-16 07:14:00,43.0,40.0,29.88,NNE,20,1.0,2.0,89,0.00,,,0.00,,2013-05-16 11:14:00,
2013-05-16 07:25:00,42.0,39.0,29.88,NNE,20,0.0,1.0,88,0.00,,,0.00,,2013-05-16 11:25:00,
2013-05-16 07:35:00,43.0,40.0,29.89,NNE,20,0.0,0.0,89,0.00,,,0.00,,2013-05-16 11:35:00,
2013-05-16 07:46:00,43.0,40.0,29.89,NNE,20,0.0,0.0,89,0.00,,,0.00,,2013-05-16 11:46:00,
2013-05-16 07:56:00,45.0,42.0,29.89,NNE,20,0.0,0.0,90,0.00,,,0.00,,2013-05-16 11:56:00,
2013-05-16 08:06:00,48.0,45.0,29.89,NNE,20,0.0,0.0,89,0.00,,,0.00,,2013-05-16 12:06:00,
2013-05-16 08:13:00,48.0,45.0,29.89,NNE,20,0.0,0.0,89,0.00,,,0.00,,2013-05-16 12:13:00,
2013-05-16 08:23:00,50.0,44.0,29.90,NNE,20,0.0,0.0,81,0.00,,,0.00,,2013-05-16 12:23:00,
2013-05-16 08:35:00,50.0,42.0,29.90,NNE,20,0.0,3.0,74,0.00,,,0.00,,2013-05-16 12:35:00,
2013-05-16 08:45:00,50.0,42.0,29.90,NNE,20,0.0,3.0,74,0.00,,,0.00,,2013-05-16 12:45:00,
2013-05-16 08:53:00,50.0,40.0,29.91,North,1,2.0,4.0,69,0.00,,,0.00,,2013-05-16 12:53:00,
2013-05-16 09:04:00,52.0,41.0,29.92,North,1,1.0,4.0,67,0.00,,,0.00,,2013-05-16 13:04:00,
2013-05-16 09:12:00,52.0,41.0,29.92,North,1,1.0,4.0,67,0.00,,,0.00,,2013-05-16 13:12:00,
2013-05-16 09:26:00,53.0,42.0,29.93,North,0,2.0,5.0,65,0.00,,,0.00,,2013-05-16 13:26:00,
2013-05-16 09:35:00,53.0,42.0,29.93,North,0,2.0,5.0,65,0.00,,,0.00,,2013-05-16 13:35:00,
2013-05-16 09:43:00,53.0,42.0,29.93,North,0,2.0,5.0,65,0.00,,,0.00,,2013-05-16 13:43:00,
2013-05-16 09:55:00,55.0,41.0,29.94,NNW,347,7.0,10.0,58,0.00,,,0.00,,2013-05-16 13:55:00,
2013-05-16 10:05:00,55.0,40.0,29.94,NNW,345,9.0,11.0,57,0.00,,,0.00,,2013-05-16 14:05:00,
2013-05-16 10:16:00,55.0,40.0,29.94,NNW,345,9.0,11.0,57,0.00,,,0.00,,2013-05-16 14:16:00,
2013-05-16 10:23:00,55.0,40.0,29.94,NNW,333,3.0,10.0,56,0.00,,,0.00,,2013-05-16 14:23:00,
2013-05-16 10:37:00,55.0,40.0,29.94,North,351,5.0,10.0,56,0.00,,,0.00,,2013-05-16 14:37:00,
2013-05-16 10:47:00,55.0,40.0,29.94,North,351,5.0,10.0,56,0.00,,,0.00,,2013-05-16 14:47:00,
2013-05-16 10:56:00,56.0,39.0,29.95,North,352,7.0,12.0,53,0.00,,,0.00,,2013-05-16 14:56:00,
2013-05-16 11:08:00,56.0,39.0,29.96,North,349,7.0,12.0,52,0.00,,,0.00,,2013-05-16 15:08:00,
2013-05-16 11:17:00,56.0,39.0,29.96,North,349,7.0,12.0,52,0.00,,,0.00,,2013-05-16 15:17:00,
2013-05-16 11:28:00,56.0,39.0,29.96,North,349,7.0,12.0,52,0.00,,,0.00,,2013-05-16 15:28:00,
2013-05-16 11:40:00,55.0,39.0,29.97,NNW,339,3.0,11.0,54,0.00,,,0.00,,2013-05-16 15:40:00,
2013-05-16 11:50:00,56.0,39.0,29.98,North,354,5.0,12.0,53,0.00,,,0.00,,2013-05-16 15:50:00,
2013-05-16 12:01:00,56.0,39.0,29.98,North,354,5.0,12.0,53,0.00,,,0.00,,2013-05-16 16:01:00,
2013-05-16 12:09:00,56.0,38.0,29.98,North,351,4.0,12.0,50,0.00,,,0.00,,2013-05-16 16:09:00,
2013-05-16 12:20:00,56.0,38.0,29.98,North,351,4.0,12.0,50,0.00,,,0.00,,2013-05-16 16:20:00,
2013-05-16 12:30:00,56.0,38.0,29.98,North,351,4.0,12.0,50,0.00,,,0.00,,2013-05-16 16:30:00,
2013-05-16 12:40:00,57.0,-99.9,29.98,North,3,6.0,11.0,51,0.00,,,0.00,,2013-05-16 16:40:00,
2013-05-16 12:50:00,57.0,39.0,29.98,North,3,6.0,11.0,51,0.00,,,0.00,,2013-05-16 16:50:00,
2013-05-16 13:01:00,57.0,40.0,29.98,North,352,8.0,13.0,53,0.00,,,0.00,,2013-05-16 17:01:00,
2013-05-16 13:10:00,58.0,39.0,29.98,North,0,3.0,9.0,50,0.00,,,0.00,,2013-05-16 17:10:00,
2013-05-16 13:20:00,58.0,39.0,29.98,North,0,3.0,9.0,50,0.00,,,0.00,,2013-05-16 17:20:00,
2013-05-16 13:31:00,58.0,39.0,29.98,NNW,340,3.0,11.0,50,0.00,,,0.00,,2013-05-16 17:31:00,
2013-05-16 13:40:00,58.0,41.0,29.98,North,11,10.0,12.0,53,0.00,,,0.00,,2013-05-16 17:40:00,
2013-05-16 13:50:00,58.0,-99.9,29.99,NNE,20,8.0,11.0,51,0.00,,,0.00,,2013-05-16 17:50:00,
2013-05-16 14:00:00,-999.0,-99.9,29.99,NNE,20,8.0,11.0,51,0.00,,,0.00,,2013-05-16 18:00:00,
2013-05-16 14:10:00,58.0,40.0,29.99,NNE,20,8.0,11.0,51,0.00,,,0.00,,2013-05-16 18:10:00,
2013-05-16 14:20:00,58.0,40.0,29.99,NNE,20,8.0,11.0,51,0.00,,,0.00,,2013-05-16 18:20:00,
2013-05-16 14:30:00,-999.0,-99.9,29.99,NNE,18,11.0,12.0,52,0.00,,,0.00,,2013-05-16 18:30:00,
2013-05-16 14:40:00,-999.0,-99.9,29.99,NNW,342,8.0,11.0,51,0.00,,,0.00,,2013-05-16 18:40:00,
2013-05-16 14:50:00,-999.0,-99.9,29.99,NNW,342,8.0,11.0,51,0.00,,,0.00,,2013-05-16 18:50:00,
2013-05-16 15:00:00,-999.0,-99.9,30.00,NNW,337,4.0,12.0,53,0.00,,,0.00,,2013-05-16 19:00:00,
2013-05-16 15:10:00,58.0,-99.9,30.00,North,8,10.0,12.0,51,0.00,,,0.00,,2013-05-16 19:10:00,
2013-05-16 15:20:00,58.0,40.0,30.00,North,8,10.0,12.0,51,0.00,,,0.00,,2013-05-16 19:20:00,
2013-05-16 15:30:00,58.0,40.0,30.00,North,358,10.0,14.0,51,0.00,,,0.00,,2013-05-16 19:30:00,
2013-05-16 15:40:00,58.0,-99.9,30.00,NNE,14,7.0,12.0,49,0.00,,,0.00,,2013-05-16 19:40:00,
2013-05-16 15:50:00,-999.0,-99.9,30.00,NNE,14,7.0,12.0,49,0.00,,,0.00,,2013-05-16 19:50:00,
2013-05-16 16:00:00,59.0,-99.9,30.00,NNW,345,5.0,12.0,48,0.00,,,0.00,,2013-05-16 20:00:00,
2013-05-16 16:10:00,-999.0,-99.9,30.00,North,358,8.0,12.0,48,0.00,,,0.00,,2013-05-16 20:10:00,
2013-05-16 16:20:00,59.0,-99.9,30.00,North,349,5.0,10.0,48,0.00,,,0.00,,2013-05-16 20:20:00,
2013-05-16 16:30:00,59.0,-99.9,30.00,North,349,5.0,10.0,48,0.00,,,0.00,,2013-05-16 20:30:00,
2013-05-16 16:41:00,-999.0,-99.9,30.00,North,5,8.0,12.0,48,0.00,,,0.00,,2013-05-16 20:41:00,
2013-05-16 16:50:00,59.0,39.0,30.00,NNW,336,8.0,12.0,48,0.00,,,0.00,,2013-05-16 20:50:00,
2013-05-16 17:00:00,59.0,39.0,30.00,NNW,336,8.0,12.0,48,0.00,,,0.00,,2013-05-16 21:00:00,
2013-05-16 17:10:00,58.0,-99.9,30.00,NNW,344,6.0,11.0,49,0.00,,,0.00,,2013-05-16 21:10:00,
2013-05-16 17:20:00,58.0,-99.9,30.00,NNW,344,6.0,11.0,49,0.00,,,0.00,,2013-05-16 21:20:00,
2013-05-16 17:29:00,58.0,38.0,30.00,NNW,327,6.0,10.0,48,0.00,,,0.00,,2013-05-16 21:29:00,
2013-05-16 17:38:00,58.0,37.0,30.00,NNW,347,7.0,9.0,46,0.00,,,0.00,,2013-05-16 21:38:00,
2013-05-16 17:50:00,58.0,-99.9,30.00,NNW,347,7.0,9.0,46,0.00,,,0.00,,2013-05-16 21:50:00,
2013-05-16 18:00:00,-999.0,-99.9,30.01,North,5,10.0,11.0,47,0.00,,,0.00,,2013-05-16 22:00:00,
2013-05-16 18:08:00,59.0,39.0,30.01,North,353,8.0,11.0,47,0.00,,,0.00,,2013-05-16 22:08:00,
2013-05-16 18:21:00,59.0,39.0,30.01,North,353,8.0,11.0,47,0.00,,,0.00,,2013-05-16 22:21:00,
2013-05-16 18:30:00,59.0,39.0,30.01,NNW,327,9.0,11.0,48,0.00,,,0.00,,2013-05-16 22:30:00,
2013-05-16 18:40:00,59.0,39.0,30.01,NNW,338,7.0,9.0,48,0.00,,,0.00,,2013-05-16 22:40:00,
2013-05-16 18:51:00,59.0,39.0,30.01,NNW,338,7.0,9.0,48,0.00,,,0.00,,2013-05-16 22:51:00,
2013-05-16 19:00:00,59.0,39.0,30.01,NNW,338,7.0,9.0,48,0.00,,,0.00,,2013-05-16 23:00:00,
2013-05-16 19:06:00,58.0,39.0,30.01,North,351,7.0,9.0,50,0.00,,,0.00,,2013-05-16 23:06:00,
2013-05-16 19:16:00,58.0,39.0,30.02,NNW,341,5.0,9.0,49,0.00,,,0.00,,2013-05-16 23:16:00,
2013-05-16 19:24:00,58.0,39.0,30.02,NNW,341,5.0,9.0,49,0.00,,,0.00,,2013-05-16 23:24:00,
2013-05-16 19:35:00,58.0,40.0,30.02,NNW,348,6.0,9.0,51,0.00,,,0.00,,2013-05-16 23:35:00,
2013-05-16 19:45:00,58.0,40.0,30.02,NNW,348,6.0,9.0,51,0.00,,,0.00,,2013-05-16 23:45:00,
2013-05-16 19:54:00,58.0,40.0,30.02,North,354,6.0,8.0,51,0.00,,,0.00,,2013-05-16 23:54:00,
2013-05-16 20:02:00,58.0,40.0,30.02,North,0,3.0,4.0,52,0.00,,,0.00,,2013-05-17 00:02:00,
2013-05-16 20:13:00,58.0,40.0,30.02,North,0,3.0,4.0,52,0.00,,,0.00,,2013-05-17 00:13:00,
2013-05-16 20:22:00,58.0,40.0,30.03,NNE,16,3.0,8.0,52,0.00,,,0.00,,2013-05-17 00:22:00,
2013-05-16 20:33:00,58.0,40.0,30.03,NNE,16,3.0,8.0,52,0.00,,,0.00,,2013-05-17 00:33:00,
2013-05-16 20:43:00,58.0,40.0,30.03,NNE,16,3.0,8.0,52,0.00,,,0.00,,2013-05-17 00:43:00,
2013-05-16 20:53:00,56.0,41.0,30.03,NNW,339,3.0,6.0,56,0.00,,,0.00,,2013-05-17 00:53:00,
2013-05-16 21:03:00,55.0,40.0,30.05,NNW,344,4.0,5.0,57,0.00,,,0.00,,2013-05-17 01:03:00,
2013-05-16 21:12:00,55.0,40.0,30.05,NNW,344,4.0,5.0,57,0.00,,,0.00,,2013-05-17 01:12:00,
2013-05-16 21:23:00,54.0,40.0,30.05,NNW,344,3.0,4.0,58,0.00,,,0.00,,2013-05-17 01:23:00,
2013-05-16 21:32:00,52.0,40.0,30.04,NNE,21,0.0,3.0,63,0.00,,,0.00,,2013-05-17 01:32:00,
2013-05-16 21:43:00,52.0,40.0,30.04,NNE,21,0.0,3.0,63,0.00,,,0.00,,2013-05-17 01:43:00,
2013-05-16 21:53:00,50.0,39.0,30.05,NNE,21,0.0,2.0,66,0.00,,,0.00,,2013-05-17 01:53:00,
2013-05-16 22:02:00,50.0,39.0,30.06,NNE,21,0.0,0.0,67,0.00,,,0.00,,2013-05-17 02:02:00,
2013-05-16 22:11:00,50.0,39.0,30.06,NNE,21,0.0,0.0,67,0.00,,,0.00,,2013-05-17 02:11:00,
2013-05-16 22:22:00,48.0,39.0,30.06,NNE,21,0.0,3.0,71,0.00,,,0.00,,2013-05-17 02:22:00,
2013-05-16 22:32:00,47.0,39.0,30.08,NNE,21,0.0,3.0,73,0.00,,,0.00,,2013-05-17 02:32:00,
2013-05-16 22:42:00,47.0,39.0,30.08,NNE,21,0.0,3.0,73,0.00,,,0.00,,2013-05-17 02:42:00,
2013-05-16 22:53:00,47.0,39.0,30.08,NNE,21,0.0,2.0,73,0.00,,,0.00,,2013-05-17 02:53:00,
2013-05-16 23:02:00,46.0,38.0,30.08,NNE,21,1.0,2.0,73,0.00,,,0.00,,2013-05-17 03:02:00,
2013-05-16 23:11:00,46.0,38.0,30.08,NNE,21,1.0,2.0,73,0.00,,,0.00,,2013-05-17 03:11:00,
2013-05-16 23:23:00,46.0,39.0,30.09,NNE,21,0.0,2.0,75,0.00,,,0.00,,2013-05-17 03:23:00,
2013-05-16 23:34:00,45.0,38.0,30.09,NNE,21,0.0,0.0,75,0.00,,,0.00,,2013-05-17 03:34:00,
2013-05-16 23:43:00,45.0,38.0,30.09,NNE,21,0.0,0.0,75,0.00,,,0.00,,2013-05-17 03:43:00,
2013-05-16 23:53:00,44.0,38.0,30.09,NNE,21,0.0,0.0,78,0.00,,,0.00,,2013-05-17 03:53:00,